TimePST,TemperatureF,Dew PointF,Humidity,Sea Level PressureIn,VisibilityMPH,Wind Direction,Wind SpeedMPH,Gust SpeedMPH,PrecipitationIn,Events,Conditions,WindDirDegrees,DateUTC
12:52 AM,53.1,37.9,57,30.05,-9999.0,East,3.5,-,N/A,,Unknown,80,2013-02-03 08:52:00
1:52 AM,52.0,41.0,66,30.05,-9999.0,Calm,Calm,-,N/A,,Unknown,0,2013-02-03 09:52:00
2:52 AM,51.1,42.1,71,30.05,-9999.0,Calm,Calm,-,N/A,,Unknown,0,2013-02-03 10:52:00
3:52 AM,51.1,43.0,74,30.03,-9999.0,Calm,Calm,-,N/A,,Unknown,0,2013-02-03 11:52:00
4:52 AM,50.0,43.0,77,30.04,-9999.0,NE,3.5,-,N/A,,Unknown,50,2013-02-03 12:52:00
5:52 AM,50.0,44.1,80,30.05,-9999.0,ENE,3.5,-,N/A,,Unknown,60,2013-02-03 13:52:00
6:52 AM,50.0,43.0,77,30.06,-9999.0,ENE,3.5,-,N/A,,Unknown,60,2013-02-03 14:52:00
7:52 AM,52.0,43.0,71,30.06,-9999.0,Calm,Calm,-,N/A,,Unknown,0,2013-02-03 15:52:00
8:52 AM,57.0,43.0,59,30.05,-9999.0,Calm,Calm,-,N/A,,Unknown,0,2013-02-03 16:52:00
9:52 AM,63.0,39.0,41,30.03,-9999.0,WSW,9.2,17.3,N/A,,Unknown,250,2013-02-03 17:52:00
10:52 AM,64.0,39.0,40,30.01,-9999.0,WNW,11.5,-,N/A,,Unknown,290,2013-02-03 18:52:00
11:52 AM,66.0,39.9,38,29.98,-9999.0,West,8.1,-,N/A,,Unknown,260,2013-02-03 19:52:00
12:52 PM,66.9,39.0,36,29.95,-9999.0,WNW,12.7,18.4,N/A,,Unknown,300,2013-02-03 20:52:00
1:52 PM,64.9,39.0,39,29.95,-9999.0,West,10.4,19.6,N/A,,Unknown,280,2013-02-03 21:52:00
2:52 PM,63.0,42.1,46,29.94,-9999.0,West,11.5,17.3,N/A,,Unknown,260,2013-02-03 22:52:00
3:52 PM,62.1,42.1,48,29.96,-9999.0,WNW,10.4,-,N/A,,Unknown,300,2013-02-03 23:52:00
4:52 PM,59.0,43.0,55,29.97,-9999.0,WSW,5.8,-,N/A,,Unknown,240,2013-02-04 00:52:00
5:52 PM,55.9,42.1,60,29.98,-9999.0,WNW,4.6,-,N/A,,Unknown,290,2013-02-04 01:52:00
6:52 PM,53.1,42.1,66,29.99,-9999.0,Calm,Calm,-,N/A,,Unknown,0,2013-02-04 02:52:00
7:52 PM,48.0,41.0,77,30.01,-9999.0,NE,5.8,-,N/A,,Unknown,50,2013-02-04 03:52:00
8:52 PM,46.0,39.9,79,30.02,-9999.0,ENE,3.5,-,N/A,,Unknown,60,2013-02-04 04:52:00
9:52 PM,45.0,39.0,80,30.01,-9999.0,NE,4.6,-,N/A,,Unknown,50,2013-02-04 05:52:00
10:52 PM,42.1,37.9,85,30.02,-9999.0,NE,5.8,-,N/A,,Unknown,50,2013-02-04 06:52:00
11:52 PM,42.1,37.0,82,30.00,-9999.0,ENE,6.9,-,N/A,,Unknown,60,2013-02-04 07:52:00